Regional Weather Roundup
Issued by NWS

Home | Current Version | Previous Version | Text Only | Print | Product List | Glossary Off
Versions: 1 2 3 4 5 6 7 8 9 10 11 12 13 14 15 16 17 18 19 20 21 22 23 24 25 26 27 28 29 30 31 32 33 34 35 36 37 38 39 40 41 42 43 44 45 46 47 48 49 50

755
ASUS45 KSLC 071510
RWRUT

UTAH REGIONAL WEATHER ROUNDUP
NATIONAL WEATHER SERVICE SALT LAKE CITY UT
800 AM MST WED DEC 07 2016

UTZ001>011-023>025-071600-

NORTHERN UTAH

CITY           SKY/WX    TMP DP  RH WIND       PRES   REMARKS
HILL AFB       NOT AVBL
LOGAN          NOT AVBL
OGDEN          NOT AVBL
SALT LAKE CITY NOT AVBL
TOOELE VALLEY  CLEAR     19  14  79 NW3       30.20R
WENDOVER       NOT AVBL

$$

UTZ011>015-024>027-071600-

CENTRAL/NORTHEAST UTAH

CITY           SKY/WX    TMP DP  RH WIND       PRES   REMARKS
PROVO AIRPORT  NOT AVBL
PRICE          NOT AVBL
VERNAL         NOT AVBL

$$

UTZ013>016-019>022-027-071600-

SOUTHERN UTAH

CITY           SKY/WX    TMP DP  RH WIND       PRES   REMARKS
BRYCE CANYON   NOT AVBL
CEDAR CITY     NOT AVBL
MILFORD        NOT AVBL
KANAB          CLEAR     27  10  50 N13       30.12R WCI  16

$$

REGIONAL REPORTS     COLORADO/ARIZONA

CITY           SKY/WX    TMP DP  RH WIND       PRES   REMARKS
CRAIG, CO      NOT AVBL
GRAND JUNCTION NOT AVBL
RIFLE, CO      NOT AVBL
MONTROSE, CO   NOT AVBL
CORTEZ, CO     NOT AVBL
PAGE, AZ       NOT AVBL
GRAND CANYON   NOT AVBL
KINGMAN, AZ    NOT AVBL
FLAGSTAFF, AZ  NOT AVBL

$$

REGIONAL REPORTS    NEVADA/IDAHO/WYOMING

CITY           SKY/WX    TMP DP  RH WIND       PRES   REMARKS
LAS VEGAS, NV  NOT AVBL
ELY, NY        NOT AVBL
ELKO, NV       NOT AVBL
POCATELLO, ID  NOT AVBL
FORT BRIDGER,  SUNNY      1  -2  85 W6        30.06R WCI -10
EVANSTON, WY   NOT AVBL
ROCK SPRINGS,  NOT AVBL

$$




USA.gov is the U.S. government's official web portal to all federal, state and local government web resources and services.